TimeCST,TemperatureF,Dew PointF,Humidity,Sea Level PressureIn,VisibilityMPH,Wind Direction,Wind SpeedMPH,Gust SpeedMPH,PrecipitationIn,Events,Conditions,WindDirDegrees,DateUTC
12:53 AM,37.9,34.0,86,30.15,10.0,West,5.8,-,N/A,,Clear,280,2013-01-20 06:53:00
1:53 AM,35.1,33.1,92,30.17,10.0,West,4.6,-,N/A,,Clear,270,2013-01-20 07:53:00
2:53 AM,34.0,32.0,92,30.18,10.0,West,4.6,-,N/A,,Clear,280,2013-01-20 08:53:00
3:53 AM,33.1,30.9,92,30.20,10.0,Calm,Calm,-,N/A,,Clear,0,2013-01-20 09:53:00
4:53 AM,30.9,28.9,92,30.22,10.0,NW,4.6,-,N/A,,Clear,310,2013-01-20 10:53:00
5:53 AM,34.0,28.0,79,30.25,10.0,WNW,4.6,-,N/A,,Clear,300,2013-01-20 11:53:00
6:53 AM,35.1,25.0,67,30.26,10.0,North,8.1,-,N/A,,Clear,350,2013-01-20 12:53:00
7:53 AM,35.1,25.0,67,30.28,10.0,North,8.1,-,N/A,,Clear,350,2013-01-20 13:53:00
8:53 AM,37.9,26.1,62,30.31,10.0,NNE,15.0,-,N/A,,Clear,30,2013-01-20 14:53:00
9:53 AM,37.9,25.0,60,30.33,10.0,North,8.1,-,N/A,,Clear,10,2013-01-20 15:53:00
10:53 AM,39.9,24.1,53,30.32,10.0,NE,6.9,-,N/A,,Clear,40,2013-01-20 16:53:00
11:53 AM,42.1,18.0,38,30.29,10.0,NE,9.2,-,N/A,,Clear,40,2013-01-20 17:53:00
12:53 PM,43.0,18.0,37,30.27,10.0,NNE,8.1,-,N/A,,Clear,20,2013-01-20 18:53:00
1:53 PM,42.1,17.1,37,30.25,10.0,SSW,4.6,-,N/A,,Clear,210,2013-01-20 19:53:00
2:53 PM,44.1,17.1,34,30.25,10.0,NNW,6.9,-,N/A,,Clear,340,2013-01-20 20:53:00
3:53 PM,42.1,19.0,40,30.25,10.0,North,9.2,-,N/A,,Clear,360,2013-01-20 21:53:00
4:53 PM,39.0,19.9,46,30.26,10.0,North,8.1,-,N/A,,Clear,350,2013-01-20 22:53:00
5:53 PM,35.1,19.0,52,30.26,10.0,NNE,8.1,-,N/A,,Clear,30,2013-01-20 23:53:00
6:53 PM,35.1,18.0,50,30.26,10.0,NE,12.7,-,N/A,,Clear,40,2013-01-21 00:53:00
7:53 PM,33.1,18.0,54,30.26,10.0,NE,11.5,-,N/A,,Clear,40,2013-01-21 01:53:00
8:53 PM,30.9,19.0,61,30.25,10.0,NNE,4.6,-,N/A,,Clear,20,2013-01-21 02:53:00
9:53 PM,30.0,19.0,64,30.26,10.0,North,5.8,-,N/A,,Clear,360,2013-01-21 03:53:00
10:53 PM,28.9,19.0,67,30.27,10.0,NNE,8.1,-,N/A,,Clear,20,2013-01-21 04:53:00
11:53 PM,28.9,18.0,64,30.27,10.0,North,8.1,-,N/A,,Clear,10,2013-01-21 05:53:00